sat.trackr.live / text

‹ back to catalog

STARLINK-31636

NORAD 59747 · 2024-090T

PAYLOAD ACTIVE UNKNOWN

§ Identity

Operator
Country
US
Launch date
2024-05-13
Launch site
AFETR
Launch vehicle
Mass (kg)
RCS (m²)

Purposes: comms

External: N2YO · Heavens-Above · Gunter

§ Orbital elements

Epoch: 2026-09-21T01:46:52.907808Z

Period
94.27 min
Inclination
43.0008°
Eccentricity
0.0000997
Mean motion
15.27553128 rev/d
Perigee alt
482.4 km
Apogee alt
483.8 km
Semi-major
6,861.3 km
B*
1.8985e-4
RAAN
159.8923°
Arg perigee
269.9374°
Mean anomaly
90.1364°
Rev number
13,332

§ Raw data

STARLINK-316361 59747U 24090T   26264.07422347  .00004962  00000+0  18985-3 0  99902 59747  43.0008 159.8923 0000997 269.9374  90.1364 15.27553128133325

JSON: /api/v1/satellites/59747 · /tle

For live sub-satellite position, see the globe view (requires WebGL).

§ Visibility from observer

Set your observer location to see the next 7 days of passes ≥ 10°. The values pass through the URL so the page stays shareable.

No JS? Fill the form by hand. The geolocation button needs JavaScript.